PE1NIB-13 Weather Reports


Display with metric or nautical units.
time (UTC)temp
F
wind
direction
speed
MPH
gust
MPH
rain 1hr
in
rain 24hr
in
rain mn
in
humidity
%
barometer
mb
20260502180903 72 286 0.0 1.0 0.00 0.01 0.01 55 1013.6
20260502163603 74 261 1.0 2.0 0.00 0.01 0.01 48 1014.1
20260502162703 74 261 1.0 2.0 0.00 0.01 0.01 49 1014.3
20260502161803 74 262 2.0 3.0 0.00 0.01 0.01 49 1014.5
20260502160903 76 254 1.0 2.0 0.00 0.01 0.01 48 1014.4
20260502151804 76 291 1.0 4.0 0.00 0.01 0.01 45 1015.2
20260502150903 77 261 2.0 4.0 0.00 0.01 0.01 46 1015.4
20260502123603 76 262 2.0 6.0 0.00 0.01 0.01 46 1016.8
20260502122703 74 283 2.0 6.0 0.00 0.01 0.01 47 1016.9
20260502121803 75 276 2.0 6.0 0.00 0.01 0.01 47 1017.0
20260502120904 75 264 2.0 6.0 0.00 0.01 0.01 47 1017.1
20260502115403 75 203 2.0 6.0 0.00 0.01 0.01 46 1017.2
20260502113603 75 221 2.0 6.0 0.00 0.01 0.01 46 1017.2
20260502112703 74 166 1.0 4.0 0.00 0.01 0.01 47 1017.4
20260502111803 75 204 2.0 8.0 0.00 0.01 0.01 45 1017.3
20260502110904 75 202 3.0 8.0 0.00 0.01 0.01 46 1017.5
20260502110004 74 251 2.0 6.0 0.00 0.01 0.01 47 1017.6
20260502105404 76 250 2.0 4.0 0.00 0.01 0.01 44 1017.5
20260502104504 74 251 2.0 6.0 0.00 0.01 0.01 46 1017.6
20260502103603 73 213 2.0 6.0 0.00 0.01 0.01 47 1017.9
20260502102704 74 143 2.0 6.0 0.00 0.01 0.01 45 1017.8
20260502100904 72 165 2.0 7.0 0.00 0.01 0.01 45 1017.8
20260502100221 73 146 2.0 7.0 0.00 0.01 0.01 45 1018.0
20260502091119 69 143 1.0 3.0 0.00 0.01 0.01 49 1018.3
20260502090222 68 151 2.0 3.0 0.00 0.01 0.01 51 1018.3
20260502071120 58 152 0.0 2.0 0.00 0.00 0.00 62 1018.8
20260502070218 58 131 0.0 2.0 0.00 0.00 0.00 61 1018.6
20260502065403 58 122 0.0 3.0 0.00 0.00 0.00 56 1018.6
20260502064503 58 124 1.0 3.0 0.00 0.00 0.00 52 1018.5
20260502063603 58 121 1.0 4.0 0.00 0.00 0.00 51 1018.6
20260502062704 58 122 2.0 4.0 0.00 0.00 0.00 50 1018.3
20260502061121 59 137 2.0 6.0 0.00 0.00 0.00 48 1018.5
20260502060218 57 143 2.0 7.0 0.00 0.00 0.00 50 1018.5
20260502055403 56 137 2.0 6.0 0.00 0.00 0.00 52 1018.6
20260502054503 55 135 2.0 4.0 0.00 0.00 0.00 53 1018.6
20260502053603 54 131 2.0 6.0 0.00 0.00 0.00 54 1018.3
20260502052703 54 135 1.0 4.0 0.00 0.00 0.00 55 1018.2
20260502051804 53 133 2.0 4.0 0.00 0.00 0.00 56 1018.2
20260502051117 53 133 1.0 3.0 0.00 0.00 0.00 57 1018.3
20260502050004 53 131 1.0 3.0 0.00 0.00 0.00 57 1018.3
20260502045403 52 129 1.0 3.0 0.00 0.00 0.00 57 1018.2
20260502044504 52 124 1.0 4.0 0.00 0.00 0.00 57 1018.4
20260502043603 52 118 1.0 2.0 0.00 0.00 0.00 57 1018.3
20260502042918 52 126 1.0 3.0 0.00 0.00 0.00 57 1018.1
20260502042020 52 137 1.0 3.0 0.00 0.00 0.00 57 1018.3
20260502040903 52 130 1.0 3.0 0.00 0.00 0.00 58 1018.3
20260502040003 52 131 1.0 3.0 0.00 0.00 0.00 58 1018.5
20260502035403 52 132 1.0 3.0 0.00 0.00 0.00 58 1018.6
20260502034503 52 124 1.0 2.0 0.00 0.00 0.00 57 1018.9
20260502033821 52 120 0.0 2.0 0.00 0.00 0.00 57 1018.7
20260502032918 52 118 0.0 1.0 0.00 0.00 0.00 57 1018.6
20260502031804 53 120 1.0 2.0 0.00 0.00 0.00 56 1018.7
20260502030903 53 121 0.0 2.0 0.00 0.00 0.00 56 1018.8
20260502030004 53 126 1.0 2.0 0.00 0.00 0.00 55 1018.8
20260502025403 53 129 1.0 2.0 0.00 0.00 0.00 55 1018.8
20260502024504 53 116 1.0 2.0 0.00 0.00 0.00 56 1018.9
20260502023604 53 123 1.0 3.0 0.00 0.00 0.00 55 1019.2
20260502022919 54 135 1.0 3.0 0.00 0.00 0.00 54 1019.1
20260502022021 54 129 1.0 3.0 0.00 0.00 0.00 53 1019.1
20260502021119 54 136 1.0 3.0 0.00 0.00 0.00 52 1019.3
20260502020003 54 121 1.0 2.0 0.00 0.00 0.00 51 1019.2
20260502015403 55 121 1.0 2.0 0.00 0.00 0.00 51 1019.4
20260502014504 55 122 1.0 2.0 0.00 0.00 0.00 51 1019.2
20260502013817 55 122 1.0 2.0 0.00 0.00 0.00 51 1019.3
20260502012703 55 123 1.0 3.0 0.00 0.00 0.00 50 1019.3
20260502012022 55 124 0.0 2.0 0.00 0.00 0.00 50 1019.3
20260502010903 56 124 0.0 2.0 0.00 0.00 0.00 50 1019.5
20260502010004 56 123 0.0 2.0 0.00 0.00 0.00 50 1019.5
20260502005403 56 121 0.0 2.0 0.00 0.00 0.00 49 1019.4
20260502004503 56 121 0.0 2.0 0.00 0.00 0.00 49 1019.8
20260502003604 56 119 1.0 3.0 0.00 0.00 0.00 48 1019.9
20260502002920 56 118 0.0 2.0 0.00 0.00 0.00 49 1020.0
20260502001803 56 117 0.0 1.0 0.00 0.00 0.00 48 1020.0
20260502000903 57 118 0.0 1.0 0.00 0.00 0.00 47 1020.2
20260502000003 57 118 0.0 1.0 0.00 0.00 0.00 47 1020.1
20260501235403 57 117 1.0 2.0 0.00 0.00 0.00 46 1020.2
20260501234503 58 117 1.0 3.0 0.00 0.00 0.00 46 1020.2
20260501233819 58 117 0.0 3.0 0.00 0.00 0.00 46 1020.3
20260501232703 58 117 1.0 2.0 0.00 0.00 0.00 45 1020.3
20260501231804 58 122 1.0 3.0 0.00 0.00 0.00 45 1020.3
20260501230903 59 131 1.0 3.0 0.00 0.00 0.00 44 1020.6
20260501230218 59 119 1.0 3.0 0.00 0.00 0.00 43 1020.5
20260501225619 60 128 1.0 3.0 0.00 0.00 0.00 43 1020.4
20260501224503 60 129 1.0 4.0 0.00 0.00 0.00 42 1020.4
20260501223603 60 119 1.0 3.0 0.00 0.00 0.00 41 1020.5
20260501222703 61 120 1.0 3.0 0.00 0.00 0.00 41 1020.3
20260501221803 61 121 1.0 3.0 0.00 0.00 0.00 40 1020.5
20260501220903 62 131 2.0 6.0 0.00 0.00 0.00 39 1020.4
20260501220004 62 121 2.0 6.0 0.00 0.00 0.00 39 1020.6
20260501215403 62 110 1.0 4.0 0.00 0.00 0.00 38 1020.7
20260501214503 62 123 1.0 4.0 0.00 0.00 0.00 38 1020.6
20260501213603 63 118 1.0 4.0 0.00 0.00 0.00 37 1020.6
20260501212703 63 118 1.0 3.0 0.00 0.00 0.00 37 1020.6
20260501211804 63 115 1.0 3.0 0.00 0.00 0.00 37 1020.7
20260501210903 63 132 1.0 3.0 0.00 0.00 0.00 37 1020.5
20260501210219 63 125 0.0 3.0 0.00 0.00 0.00 37 1020.6
20260501205621 63 114 0.0 2.0 0.00 0.00 0.00 37 1020.6
20260501204718 63 114 0.0 2.0 0.00 0.00 0.00 37 1020.9
20260501203820 63 114 0.0 2.0 0.00 0.00 0.00 37 1020.7
20260501202704 64 114 0.0 2.0 0.00 0.00 0.00 36 1020.6
20260501201804 64 114 0.0 1.0 0.00 0.00 0.00 36 1020.7
20260501200904 65 114 1.0 2.0 0.00 0.00 0.00 35 1020.7
20260501200220 65 114 0.0 1.0 0.00 0.00 0.00 35 1020.9
20260501195621 65 114 0.0 1.0 0.00 0.00 0.00 35 1020.8
20260501194503 66 114 0.0 1.0 0.00 0.00 0.00 34 1021.0
20260501193603 67 114 0.0 1.0 0.00 0.00 0.00 33 1020.8
20260501192918 67 114 0.0 2.0 0.00 0.00 0.00 32 1020.9
20260501192021 69 115 1.0 3.0 0.00 0.00 0.00 30 1020.7
20260501190903 69 117 1.0 3.0 0.00 0.00 0.00 29 1020.7
20260501190004 70 115 1.0 4.0 0.00 0.00 0.00 28 1020.6
20260501185403 71 118 2.0 6.0 0.00 0.00 0.00 27 1020.9
20260501184504 71 111 3.0 8.0 0.00 0.00 0.00 27 1020.7
20260501183816 72 110 3.0 6.0 0.00 0.00 0.00 26 1020.7
20260501182919 72 110 2.0 7.0 0.00 0.00 0.00 26 1020.8
20260501181803 73 105 3.0 7.0 0.00 0.00 0.00 25 1020.7